| time (UTC) | temp C | wind direction | speed KPH | gust KPH | rain 1hr cm | rain 24hr cm | rain mn cm | humidity % | barometer mb |
| 20260508214122 | 11 | 270 | 0.0 | 0.0 | 0.00 | 0.00 | 0.00 | 43 | 1010.9 |
| 20260508213611 | 11 | 293 | 0.0 | 0.0 | 0.00 | 0.00 | 0.00 | 43 | 1010.8 |
| 20260508213102 | 12 | 270 | 0.0 | 0.0 | 0.00 | 0.00 | 0.00 | 42 | 1010.8 |
| 20260508212553 | 11 | 270 | 0.0 | 0.0 | 0.00 | 0.00 | 0.00 | 46 | 1010.7 |
| 20260508212042 | 11 | 293 | 0.0 | 0.0 | 0.00 | 0.00 | 0.00 | 43 | 1010.6 |
| 20260508210512 | 13 | 135 | 0.0 | 0.0 | 0.00 | 0.00 | 0.00 | 37 | 1010.7 |
| 20260508205453 | 15 | 113 | 0.0 | 0.0 | 0.00 | 0.00 | 0.00 | 33 | 1010.7 |
| 20260508204942 | 16 | 293 | 0.0 | 0.0 | 0.00 | 0.00 | 0.00 | 33 | 1010.5 |
| 20260508204433 | 16 | 270 | 0.0 | 0.0 | 0.00 | 0.00 | 0.00 | 32 | 1010.6 |
| 20260508203923 | 16 | 270 | 0.0 | 0.0 | 0.00 | 0.00 | 0.00 | 31 | 1010.4 |
| 20260508203412 | 16 | 270 | 0.0 | 0.0 | 0.00 | 0.00 | 0.00 | 28 | 1010.6 |
| 20260508202902 | 17 | 270 | 0.0 | 0.0 | 0.00 | 0.00 | 0.00 | 27 | 1010.5 |
| 20260508202353 | 17 | 270 | 0.0 | 0.0 | 0.00 | 0.00 | 0.00 | 25 | 1010.3 |
| 20260508201841 | 17 | 270 | 0.0 | 3.2 | 0.00 | 0.00 | 0.00 | 26 | 1010.4 |
| 20260508201330 | 16 | 203 | 0.0 | 6.4 | 0.00 | 0.00 | 0.00 | 25 | 1010.3 |
| 20260508200819 | 17 | 248 | 0.0 | 6.4 | 0.00 | 0.00 | 0.00 | 25 | 1010.3 |
| 20260508200311 | 17 | 113 | 0.0 | 6.4 | 0.00 | 0.00 | 0.00 | 25 | 1010.4 |
| 20260508195249 | 17 | 90 | 0.0 | 3.2 | 0.00 | 0.00 | 0.00 | 25 | 1010.1 |
| 20260508194739 | 17 | 270 | 0.0 | 6.4 | 0.00 | 0.00 | 0.00 | 26 | 1010.0 |
| 20260508194228 | 17 | 68 | 0.0 | 12.9 | 0.00 | 0.00 | 0.00 | 26 | 1010.3 |
| 20260508193718 | 17 | 293 | 1.6 | 17.7 | 0.00 | 0.00 | 0.00 | 23 | 1010.2 |
| 20260508193210 | 17 | 293 | 1.6 | 17.7 | 0.00 | 0.00 | 0.00 | 24 | 1010.3 |
| 20260508192703 | 17 | 158 | 0.0 | 6.4 | 0.00 | 0.00 | 0.00 | 23 | 1010.4 |
| 20260508192150 | 17 | 270 | 0.0 | 14.5 | 0.00 | 0.00 | 0.00 | 25 | 1010.4 |
| 20260508191640 | 17 | 270 | 0.0 | 14.5 | 0.00 | 0.00 | 0.00 | 24 | 1010.5 |
| 20260508191130 | 17 | 270 | 0.0 | 25.7 | 0.00 | 0.00 | 0.00 | 27 | 1010.4 |
| 20260508190620 | 17 | 225 | 0.0 | 25.7 | 0.00 | 0.00 | 0.00 | 26 | 1010.6 |
| 20260508190110 | 17 | 248 | 6.4 | 25.7 | 0.00 | 0.00 | 0.00 | 27 | 1010.6 |
| 20260508185603 | 17 | 270 | 3.2 | 22.5 | 0.00 | 0.00 | 0.00 | 27 | 1010.7 |
| 20260508185050 | 17 | 248 | 3.2 | 22.5 | 0.00 | 0.00 | 0.00 | 29 | 1010.6 |
| 20260508184538 | 17 | 338 | 0.0 | 24.1 | 0.00 | 0.00 | 0.00 | 27 | 1010.7 |
| 20260508183518 | 17 | 270 | 3.2 | 29.0 | 0.00 | 0.00 | 0.00 | 30 | 1010.9 |
| 20260508183007 | 16 | 270 | 14.5 | 29.0 | 0.00 | 0.00 | 0.00 | 29 | 1011.0 |
| 20260508182457 | 16 | 270 | 14.5 | 25.7 | 0.00 | 0.00 | 0.00 | 29 | 1011.0 |
| 20260508181948 | 17 | 270 | 12.9 | 24.1 | 0.00 | 0.00 | 0.00 | 31 | 1010.8 |
| 20260508181437 | 16 | 248 | 4.8 | 25.7 | 0.00 | 0.00 | 0.00 | 32 | 1011.0 |
| 20260508180418 | 16 | 248 | 12.9 | 25.7 | 0.00 | 0.00 | 0.00 | 33 | 1011.2 |
| 20260508175908 | 16 | 248 | 3.2 | 24.1 | 0.00 | 0.00 | 0.00 | 33 | 1010.9 |
| 20260508175358 | 16 | 248 | 0.0 | 24.1 | 0.00 | 0.00 | 0.00 | 34 | 1011.0 |
| 20260508174338 | 16 | 270 | 8.0 | 22.5 | 0.00 | 0.00 | 0.00 | 32 | 1011.3 |
| 20260508173829 | 16 | 293 | 8.0 | 25.7 | 0.00 | 0.00 | 0.00 | 36 | 1011.3 |
| 20260508173318 | 16 | 293 | 16.1 | 25.7 | 0.00 | 0.00 | 0.00 | 35 | 1011.3 |
| 20260508172808 | 16 | 248 | 4.8 | 22.5 | 0.00 | 0.00 | 0.00 | 35 | 1011.4 |
| 20260508172259 | 15 | 270 | 3.2 | 22.5 | 0.00 | 0.00 | 0.00 | 35 | 1011.6 |
| 20260508171749 | 15 | 225 | 4.8 | 20.9 | 0.00 | 0.00 | 0.00 | 36 | 1011.4 |
| 20260508171235 | 16 | 248 | 6.4 | 17.7 | 0.00 | 0.00 | 0.00 | 35 | 1011.6 |
| 20260508170727 | 15 | 248 | 0.0 | 22.5 | 0.00 | 0.00 | 0.00 | 37 | 1011.7 |
| 20260508170216 | 16 | 270 | 3.2 | 22.5 | 0.00 | 0.00 | 0.00 | 38 | 1011.7 |
| 20260508165706 | 15 | 270 | 3.2 | 17.7 | 0.00 | 0.00 | 0.00 | 38 | 1011.7 |
| 20260508165155 | 16 | 270 | 6.4 | 17.7 | 0.00 | 0.00 | 0.00 | 36 | 1011.9 |
| 20260508164648 | 15 | 23 | 0.0 | 14.5 | 0.00 | 0.00 | 0.00 | 38 | 1011.9 |
| 20260508164136 | 16 | 270 | 1.6 | 17.7 | 0.00 | 0.00 | 0.00 | 39 | 1012.2 |
| 20260508163116 | 15 | 270 | 3.2 | 11.3 | 0.00 | 0.00 | 0.00 | 40 | 1012.2 |
| 20260508162606 | 16 | 315 | 0.0 | 6.4 | 0.00 | 0.00 | 0.00 | 40 | 1012.3 |
| 20260508162056 | 16 | 248 | 0.0 | 11.3 | 0.00 | 0.00 | 0.00 | 41 | 1012.4 |
| 20260508161548 | 15 | 270 | 0.0 | 17.7 | 0.00 | 0.00 | 0.00 | 38 | 1012.4 |
| 20260508161035 | 15 | 293 | 8.0 | 24.1 | 0.00 | 0.00 | 0.00 | 40 | 1012.5 |
| 20260508160528 | 15 | 248 | 1.6 | 24.1 | 0.00 | 0.00 | 0.00 | 39 | 1012.5 |
| 20260508155506 | 14 | 248 | 0.0 | 17.7 | 0.00 | 0.00 | 0.00 | 43 | 1012.9 |
| 20260508155001 | 14 | 270 | 0.0 | 22.5 | 0.00 | 0.03 | 0.00 | 43 | 1012.9 |
| 20260508154448 | 15 | 315 | 8.0 | 22.5 | 0.00 | 0.03 | 0.00 | 43 | 1013.1 |
| 20260508153423 | 15 | 270 | 3.2 | 11.3 | 0.00 | 0.03 | 0.00 | 42 | 1013.2 |
| 20260508152914 | 15 | 225 | 0.0 | 6.4 | 0.00 | 0.03 | 0.00 | 44 | 1013.3 |
| 20260508152407 | 14 | 203 | 0.0 | 6.4 | 0.00 | 0.03 | 0.00 | 43 | 1013.2 |
| 20260508151853 | 14 | 270 | 0.0 | 11.3 | 0.00 | 0.03 | 0.00 | 44 | 1013.3 |
| 20260508150833 | 14 | 270 | 0.0 | 20.9 | 0.00 | 0.05 | 0.00 | 45 | 1013.7 |
| 20260508150324 | 13 | 270 | 6.4 | 24.1 | 0.00 | 0.05 | 0.00 | 46 | 1013.8 |
| 20260508145814 | 13 | 248 | 8.0 | 24.1 | 0.00 | 0.05 | 0.00 | 46 | 1013.9 |
| 20260508145306 | 13 | 270 | 4.8 | 22.5 | 0.00 | 0.05 | 0.00 | 48 | 1013.9 |
| 20260508144754 | 13 | 270 | 6.4 | 22.5 | 0.00 | 0.05 | 0.00 | 48 | 1013.9 |
| 20260508143734 | 12 | 270 | 4.8 | 22.5 | 0.00 | 0.05 | 0.00 | 47 | 1014.0 |
| 20260508143225 | 12 | 293 | 9.7 | 22.5 | 0.00 | 0.05 | 0.00 | 48 | 1014.0 |
| 20260508142714 | 12 | 248 | 6.4 | 25.7 | 0.00 | 0.05 | 0.00 | 47 | 1013.8 |
| 20260508142215 | 12 | 248 | 1.6 | 25.7 | 0.00 | 0.05 | 0.00 | 50 | 1013.8 |
| 20260508141654 | 12 | 248 | 8.0 | 22.5 | 0.00 | 0.05 | 0.00 | 48 | 1013.8 |
| 20260508141146 | 12 | 248 | 4.8 | 20.9 | 0.00 | 0.10 | 0.00 | 48 | 1013.8 |
| 20260508140633 | 13 | 270 | 1.6 | 6.4 | 0.00 | 0.15 | 0.00 | 47 | 1013.7 |
| 20260508140121 | 13 | 270 | 1.6 | 17.7 | 0.00 | 0.15 | 0.00 | 48 | 1013.7 |
| 20260508135612 | 12 | 270 | 0.0 | 17.7 | 0.00 | 0.15 | 0.00 | 51 | 1013.6 |
| 20260508135102 | 12 | 270 | 1.6 | 14.5 | 0.00 | 0.15 | 0.00 | 48 | 1013.6 |
| 20260508134552 | 12 | 135 | 0.0 | 14.5 | 0.00 | 0.15 | 0.00 | 51 | 1013.5 |
| 20260508134041 | 12 | 225 | 1.6 | 17.7 | 0.00 | 0.15 | 0.00 | 50 | 1013.6 |
| 20260508133534 | 11 | 270 | 3.2 | 17.7 | 0.00 | 0.15 | 0.00 | 51 | 1013.8 |
| 20260508133024 | 11 | 248 | 3.2 | 17.7 | 0.00 | 0.15 | 0.00 | 51 | 1013.7 |
| 20260508132515 | 11 | 270 | 3.2 | 24.1 | 0.00 | 0.15 | 0.00 | 52 | 1013.5 |
| 20260508132008 | 11 | 270 | 0.0 | 24.1 | 0.00 | 0.15 | 0.00 | 53 | 1013.6 |
| 20260508131455 | 11 | 293 | 6.4 | 24.1 | 0.00 | 0.15 | 0.00 | 53 | 1013.6 |
| 20260508130945 | 10 | 270 | 3.2 | 24.1 | 0.00 | 0.15 | 0.00 | 53 | 1013.5 |
| 20260508130438 | 10 | 270 | 6.4 | 22.5 | 0.00 | 0.15 | 0.00 | 54 | 1013.4 |
| 20260508124905 | 10 | 248 | 1.6 | 17.7 | 0.00 | 0.15 | 0.00 | 56 | 1013.4 |
| 20260508124353 | 10 | 270 | 0.0 | 17.7 | 0.00 | 0.15 | 0.00 | 56 | 1013.4 |
| 20260508123847 | 10 | 270 | 3.2 | 12.9 | 0.00 | 0.15 | 0.00 | 57 | 1013.8 |
| 20260508122312 | 9 | 270 | 0.0 | 22.5 | 0.00 | 0.15 | 0.00 | 59 | 1013.4 |
| 20260508121804 | 8 | 270 | 6.4 | 22.5 | 0.00 | 0.15 | 0.00 | 61 | 1013.2 |
| 20260508121257 | 8 | 248 | 0.0 | 12.9 | 0.00 | 0.15 | 0.00 | 62 | 1013.3 |
| 20260508120742 | 8 | 270 | 0.0 | 14.5 | 0.00 | 0.15 | 0.00 | 62 | 1013.4 |
| 20260508115211 | 7 | 270 | 0.0 | 9.7 | 0.00 | 0.15 | 0.00 | 64 | 1013.2 |
| 20260508114702 | 7 | 248 | 0.0 | 17.7 | 0.00 | 0.15 | 0.00 | 64 | 1013.2 |
| 20260508114154 | 7 | 270 | 4.8 | 17.7 | 0.00 | 0.15 | 0.00 | 64 | 1013.1 |
| 20260508113645 | 7 | 293 | 1.6 | 17.7 | 0.00 | 0.15 | 0.00 | 66 | 1013.2 |
| 20260508113132 | 7 | 270 | 1.6 | 17.7 | 0.00 | 0.15 | 0.00 | 65 | 1013.2 |
| 20260508112620 | 7 | 270 | 0.0 | 17.7 | 0.00 | 0.15 | 0.00 | 66 | 1013.0 |
| 20260508112114 | 7 | 270 | 0.0 | 17.7 | 0.00 | 0.15 | 0.00 | 66 | 1012.8 |
| 20260508111608 | 7 | 293 | 0.0 | 12.9 | 0.00 | 0.15 | 0.00 | 67 | 1012.7 |
| 20260508111053 | 7 | 293 | 0.0 | 17.7 | 0.00 | 0.15 | 0.00 | 67 | 1012.6 |
| 20260508110543 | 6 | 248 | 0.0 | 17.7 | 0.00 | 0.15 | 0.00 | 67 | 1012.7 |
| 20260508110028 | 6 | 248 | 0.0 | 9.7 | 0.00 | 0.15 | 0.00 | 69 | 1012.5 |
| 20260508105517 | 6 | 270 | 1.6 | 9.7 | 0.00 | 0.15 | 0.00 | 70 | 1012.4 |
| 20260508104500 | 6 | 270 | 1.6 | 12.9 | 0.00 | 0.15 | 0.00 | 70 | 1012.4 |
| 20260508103951 | 6 | 270 | 1.6 | 11.3 | 0.00 | 0.15 | 0.00 | 70 | 1012.4 |
| 20260508103445 | 6 | 293 | 1.6 | 11.3 | 0.00 | 0.15 | 0.00 | 70 | 1012.2 |
| 20260508102928 | 6 | 293 | 0.0 | 11.3 | 0.00 | 0.15 | 0.00 | 72 | 1012.1 |
| 20260508102418 | 5 | 270 | 0.0 | 12.9 | 0.00 | 0.15 | 0.00 | 74 | 1012.1 |
| 20260508101403 | 6 | 293 | 0.0 | 6.4 | 0.00 | 0.15 | 0.00 | 73 | 1011.7 |
| 20260508100851 | 6 | 293 | 0.0 | 11.3 | 0.00 | 0.15 | 0.00 | 71 | 1011.7 |
| 20260508100340 | 6 | 270 | 0.0 | 12.9 | 0.00 | 0.15 | 0.00 | 71 | 1011.5 |
| 20260508095831 | 6 | 270 | 1.6 | 12.9 | 0.00 | 0.15 | 0.00 | 71 | 1011.6 |
| 20260508095321 | 6 | 270 | 0.0 | 12.9 | 0.00 | 0.15 | 0.00 | 70 | 1011.5 |
| 20260508094304 | 7 | 270 | 1.6 | 9.7 | 0.00 | 0.15 | 0.00 | 63 | 1011.4 |
| 20260508093751 | 7 | 270 | 0.0 | 9.7 | 0.00 | 0.15 | 0.00 | 63 | 1011.2 |
| 20260508093243 | 7 | 293 | 0.0 | 6.4 | 0.00 | 0.15 | 0.00 | 64 | 1011.4 |
| 20260508092727 | 7 | 293 | 0.0 | 6.4 | 0.00 | 0.15 | 0.00 | 62 | 1011.2 |
| 20260508092219 | 8 | 270 | 0.0 | 9.7 | 0.00 | 0.15 | 0.00 | 61 | 1011.0 |
| 20260508091707 | 8 | 270 | 0.0 | 9.7 | 0.00 | 0.15 | 0.00 | 61 | 1011.0 |
| 20260508091156 | 8 | 293 | 0.0 | 3.2 | 0.00 | 0.15 | 0.00 | 61 | 1011.2 |
| 20260508090645 | 8 | 113 | 0.0 | 0.0 | 0.00 | 0.15 | 0.00 | 61 | 1010.9 |
| 20260508090141 | 8 | 270 | 0.0 | 0.0 | 0.00 | 0.15 | 0.00 | 59 | 1010.9 |
| 20260508085628 | 8 | 338 | 0.0 | 6.4 | 0.00 | 0.15 | 0.00 | 59 | 1010.8 |
| 20260508085120 | 8 | 135 | 0.0 | 12.9 | 0.00 | 0.15 | 0.00 | 61 | 1010.8 |
| 20260508083547 | 7 | 270 | 4.8 | 12.9 | 0.00 | 0.15 | 0.00 | 65 | 1010.6 |
| 20260508083043 | 7 | 270 | 3.2 | 12.9 | 0.00 | 0.15 | 0.00 | 67 | 1010.6 |
| 20260508082527 | 7 | 270 | 0.0 | 12.9 | 0.00 | 0.15 | 0.00 | 68 | 1010.6 |
| 20260508082017 | 7 | 270 | 3.2 | 12.9 | 0.00 | 0.15 | 0.00 | 66 | 1010.5 |
| 20260508081514 | 7 | 270 | 0.0 | 3.2 | 0.00 | 0.15 | 0.00 | 67 | 1010.5 |
| 20260508081001 | 7 | 248 | 0.0 | 11.3 | 0.00 | 0.15 | 0.00 | 67 | 1010.7 |
| 20260508080444 | 7 | 270 | 4.8 | 11.3 | 0.00 | 0.15 | 0.00 | 67 | 1010.5 |
| 20260508075944 | 7 | 248 | 0.0 | 6.4 | 0.00 | 0.15 | 0.00 | 68 | 1010.7 |
| 20260508075423 | 7 | 270 | 0.0 | 0.0 | 0.00 | 0.15 | 0.00 | 69 | 1010.3 |
| 20260508074922 | 7 | 270 | 0.0 | 0.0 | 0.00 | 0.15 | 0.00 | 70 | 1010.4 |
| 20260508074404 | 7 | 270 | 0.0 | 0.0 | 0.00 | 0.15 | 0.00 | 70 | 1010.3 |
| 20260508073346 | 7 | 293 | 0.0 | 0.0 | 0.00 | 0.15 | 0.00 | 71 | 1010.3 |
| 20260508072833 | 7 | 293 | 0.0 | 0.0 | 0.00 | 0.15 | 0.00 | 70 | 1010.3 |
| 20260508072326 | 7 | 293 | 0.0 | 0.0 | 0.00 | 0.15 | 0.00 | 69 | 1010.5 |
| 20260508071813 | 7 | 270 | 0.0 | 0.0 | 0.00 | 0.15 | 0.00 | 70 | 1010.3 |
| 20260508070249 | 7 | 225 | 0.0 | 0.0 | 0.00 | 0.15 | 0.00 | 71 | 1010.4 |
| 20260508065732 | 7 | 270 | 0.0 | 0.0 | 0.00 | 0.15 | 0.00 | 70 | 1010.4 |
| 20260508065228 | 7 | 180 | 0.0 | 3.2 | 0.00 | 0.15 | 0.00 | 70 | 1010.5 |
| 20260508064713 | 7 | 90 | 0.0 | 3.2 | 0.00 | 0.15 | 0.00 | 70 | 1010.3 |
| 20260508064207 | 7 | 225 | 0.0 | 3.2 | 0.00 | 0.15 | 0.00 | 69 | 1010.4 |
| 20260508063701 | 7 | 225 | 0.0 | 3.2 | 0.00 | 0.15 | 0.00 | 69 | 1010.5 |
| 20260508063143 | 7 | 135 | 0.0 | 0.0 | 0.00 | 0.15 | 0.00 | 70 | 1010.5 |
| 20260508062641 | 7 | 270 | 0.0 | 0.0 | 0.00 | 0.15 | 0.00 | 69 | 1010.4 |
| 20260508062125 | 7 | 293 | 0.0 | 0.0 | 0.00 | 0.15 | 0.00 | 70 | 1010.7 |
| 20260508061616 | 7 | 248 | 0.0 | 0.0 | 0.00 | 0.15 | 0.00 | 71 | 1010.5 |
| 20260508061102 | 7 | 270 | 0.0 | 0.0 | 0.00 | 0.15 | 0.00 | 73 | 1010.4 |
| 20260508060554 | 7 | 293 | 0.0 | 0.0 | 0.00 | 0.15 | 0.00 | 71 | 1010.4 |
| 20260508060050 | 7 | 293 | 0.0 | 0.0 | 0.00 | 0.15 | 0.00 | 71 | 1010.4 |
| 20260508055530 | 8 | 23 | 0.0 | 0.0 | 0.00 | 0.15 | 0.00 | 70 | 1010.5 |
| 20260508055024 | 8 | 270 | 0.0 | 0.0 | 0.00 | 0.15 | 0.00 | 70 | 1010.7 |
| 20260508054512 | 8 | 270 | 0.0 | 0.0 | 0.00 | 0.15 | 0.00 | 68 | 1010.7 |
| 20260508054005 | 8 | 270 | 0.0 | 0.0 | 0.00 | 0.15 | 0.00 | 67 | 1010.9 |
| 20260508052433 | 8 | 270 | 0.0 | 0.0 | 0.00 | 0.15 | 0.00 | 69 | 1010.8 |
| 20260508051925 | 8 | 270 | 0.0 | 3.2 | 0.00 | 0.15 | 0.00 | 71 | 1010.8 |
| 20260508050903 | 7 | 293 | 0.0 | 6.4 | 0.00 | 0.15 | 0.00 | 72 | 1010.8 |
| 20260508050351 | 7 | 293 | 0.0 | 3.2 | 0.00 | 0.15 | 0.00 | 73 | 1010.8 |
| 20260508045842 | 7 | 270 | 0.0 | 3.2 | 0.00 | 0.15 | 0.00 | 73 | 1010.7 |
| 20260508045335 | 7 | 270 | 0.0 | 3.2 | 0.00 | 0.15 | 0.00 | 73 | 1010.9 |
| 20260508044821 | 7 | 270 | 0.0 | 3.2 | 0.00 | 0.15 | 0.00 | 73 | 1010.4 |
| 20260508044310 | 7 | 270 | 0.0 | 3.2 | 0.00 | 0.15 | 0.00 | 73 | 1010.6 |
| 20260508043252 | 7 | 293 | 0.0 | 3.2 | 0.00 | 0.15 | 0.00 | 74 | 1010.4 |
| 20260508042232 | 7 | 270 | 0.0 | 3.2 | 0.00 | 0.15 | 0.00 | 74 | 1010.3 |
| 20260508041722 | 8 | 270 | 0.0 | 0.0 | 0.00 | 0.15 | 0.00 | 74 | 1010.2 |
| 20260508040701 | 8 | 270 | 0.0 | 12.9 | 0.00 | 0.15 | 0.00 | 74 | 1010.3 |
| 20260508040154 | 7 | 270 | 0.0 | 6.4 | 0.00 | 0.15 | 0.00 | 75 | 1010.1 |
| 20260508035641 | 7 | 293 | 0.0 | 3.2 | 0.00 | 0.15 | 0.00 | 76 | 1009.9 |
| 20260508034626 | 7 | 270 | 0.0 | 0.0 | 0.00 | 0.15 | 0.00 | 76 | 1009.7 |
| 20260508034114 | 7 | 293 | 0.0 | 0.0 | 0.00 | 0.15 | 0.00 | 76 | 1009.6 |
| 20260508033602 | 7 | 315 | 0.0 | 0.0 | 0.00 | 0.15 | 0.00 | 78 | 1009.4 |
| 20260508033053 | 7 | 270 | 0.0 | 0.0 | 0.00 | 0.15 | 0.00 | 79 | 1009.8 |
| 20260508032541 | 7 | 270 | 0.0 | 0.0 | 0.00 | 0.15 | 0.00 | 78 | 1009.9 |
| 20260508032032 | 7 | 270 | 0.0 | 0.0 | 0.00 | 0.15 | 0.00 | 77 | 1010.4 |
| 20260508031523 | 7 | 293 | 0.0 | 0.0 | 0.00 | 0.15 | 0.00 | 78 | 1010.2 |
| 20260508031009 | 7 | 293 | 0.0 | 0.0 | 0.00 | 0.15 | 0.00 | 79 | 1010.2 |
| 20260508030500 | 7 | 315 | 0.0 | 0.0 | 0.00 | 0.15 | 0.00 | 79 | 1010.1 |
| 20260508025947 | 7 | 270 | 0.0 | 0.0 | 0.00 | 0.15 | 0.15 | 79 | 1010.0 |
| 20260508025438 | 7 | 293 | 0.0 | 0.0 | 0.00 | 0.15 | 0.15 | 79 | 1009.9 |
| 20260508024934 | 7 | 270 | 0.0 | 0.0 | 0.00 | 0.15 | 0.15 | 80 | 1009.8 |
| 20260508024422 | 7 | 270 | 0.0 | 0.0 | 0.00 | 0.15 | 0.15 | 81 | 1009.8 |
| 20260508023359 | 6 | 293 | 0.0 | 0.0 | 0.00 | 0.15 | 0.15 | 82 | 1009.9 |
| 20260508022854 | 6 | 315 | 0.0 | 3.2 | 0.00 | 0.15 | 0.15 | 83 | 1009.8 |
| 20260508022349 | 6 | 293 | 0.0 | 3.2 | 0.00 | 0.15 | 0.15 | 84 | 1009.9 |
| 20260508021828 | 7 | 293 | 0.0 | 0.0 | 0.00 | 0.15 | 0.15 | 82 | 1009.7 |
| 20260508021323 | 7 | 270 | 0.0 | 0.0 | 0.00 | 0.15 | 0.15 | 82 | 1009.9 |
| 20260508020812 | 7 | 293 | 0.0 | 6.4 | 0.00 | 0.15 | 0.15 | 82 | 1010.0 |
| 20260508020259 | 7 | 293 | 0.0 | 6.4 | 0.00 | 0.15 | 0.15 | 81 | 1010.1 |
| 20260508015749 | 7 | 293 | 0.0 | 0.0 | 0.00 | 0.15 | 0.15 | 80 | 1010.0 |
| 20260508015239 | 8 | 293 | 0.0 | 0.0 | 0.00 | 0.15 | 0.15 | 80 | 1010.1 |
| 20260508014220 | 7 | 293 | 0.0 | 0.0 | 0.00 | 0.15 | 0.15 | 80 | 1010.0 |
| 20260508013706 | 7 | 293 | 0.0 | 0.0 | 0.00 | 0.15 | 0.15 | 82 | 1010.0 |
| 20260508013156 | 7 | 293 | 0.0 | 0.0 | 0.00 | 0.15 | 0.15 | 82 | 1010.0 |
| 20260508012646 | 7 | 293 | 0.0 | 0.0 | 0.00 | 0.15 | 0.15 | 83 | 1009.8 |
| 20260508012141 | 7 | 293 | 0.0 | 0.0 | 0.00 | 0.15 | 0.15 | 82 | 1009.7 |
| 20260508011630 | 7 | 315 | 0.0 | 0.0 | 0.00 | 0.15 | 0.15 | 82 | 1009.7 |
| 20260508011118 | 7 | 293 | 0.0 | 0.0 | 0.00 | 0.15 | 0.15 | 83 | 1009.6 |
| 20260508010608 | 7 | 293 | 0.0 | 3.2 | 0.00 | 0.15 | 0.15 | 84 | 1009.4 |
| 20260508005549 | 8 | 270 | 0.0 | 0.0 | 0.00 | 0.15 | 0.15 | 82 | 1009.6 |
| 20260508005040 | 7 | 293 | 0.0 | 0.0 | 0.00 | 0.15 | 0.15 | 82 | 1009.7 |
| 20260508004017 | 8 | 293 | 0.0 | 6.4 | 0.00 | 0.15 | 0.15 | 83 | 1009.4 |
| 20260508003507 | 7 | 293 | 0.0 | 6.4 | 0.00 | 0.15 | 0.15 | 84 | 1009.5 |
| 20260508003000 | 7 | 315 | 0.0 | 0.0 | 0.00 | 0.15 | 0.15 | 85 | 1009.4 |
| 20260508002447 | 7 | 315 | 0.0 | 0.0 | 0.00 | 0.15 | 0.15 | 85 | 1009.3 |
| 20260508001936 | 7 | 293 | 0.0 | 0.0 | 0.00 | 0.15 | 0.15 | 86 | 1009.2 |
| 20260508001431 | 8 | 293 | 0.0 | 0.0 | 0.00 | 0.15 | 0.15 | 85 | 1009.1 |
| 20260508000916 | 8 | 293 | 0.0 | 0.0 | 0.00 | 0.15 | 0.15 | 85 | 1009.0 |
| 20260508000406 | 8 | 315 | 0.0 | 0.0 | 0.00 | 0.15 | 0.15 | 83 | 1009.3 |
| 20260507235855 | 8 | 315 | 0.0 | 0.0 | 0.00 | 0.15 | 0.15 | 84 | 1009.2 |
| 20260507235347 | 8 | 293 | 0.0 | 0.0 | 0.00 | 0.15 | 0.15 | 84 | 1009.3 |
| 20260507234834 | 8 | 315 | 0.0 | 0.0 | 0.00 | 0.15 | 0.15 | 86 | 1009.3 |
| 20260507234324 | 8 | 315 | 0.0 | 0.0 | 0.00 | 0.15 | 0.15 | 84 | 1009.3 |
| 20260507233818 | 8 | 293 | 0.0 | 3.2 | 0.00 | 0.15 | 0.15 | 84 | 1009.3 |
| 20260507233305 | 9 | 293 | 0.0 | 3.2 | 0.00 | 0.15 | 0.15 | 82 | 1009.2 |
| 20260507232756 | 9 | 315 | 0.0 | 0.0 | 0.00 | 0.15 | 0.15 | 83 | 1009.2 |
| 20260507232252 | 9 | 293 | 0.0 | 0.0 | 0.00 | 0.15 | 0.15 | 82 | 1009.3 |
| 20260507231740 | 9 | 293 | 0.0 | 0.0 | 0.00 | 0.15 | 0.15 | 81 | 1009.3 |
| 20260507225657 | 9 | 315 | 0.0 | 0.0 | 0.00 | 0.15 | 0.15 | 81 | 1009.1 |
| 20260507225145 | 10 | 315 | 0.0 | 0.0 | 0.00 | 0.15 | 0.15 | 80 | 1009.0 |
| 20260507224130 | 10 | 293 | 0.0 | 0.0 | 0.00 | 0.15 | 0.15 | 77 | 1008.8 |
| 20260507223102 | 10 | 315 | 0.0 | 0.0 | 0.00 | 0.15 | 0.15 | 76 | 1008.8 |
| 20260507222552 | 11 | 293 | 0.0 | 0.0 | 0.00 | 0.15 | 0.15 | 75 | 1008.6 |
| 20260507222044 | 11 | 293 | 0.0 | 0.0 | 0.00 | 0.15 | 0.15 | 74 | 1008.4 |
| 20260507221538 | 11 | 293 | 0.0 | 0.0 | 0.00 | 0.15 | 0.15 | 73 | 1008.2 |